Temp
-15 -15 -15 -15 -15 -15 -15 -15 -15 -15 -14 -14 -14 -14 -14 -15 -15 -15 -15 -15 -14 -14 -14 -14 -14 -14 -14 -14 -14 -14 -13 -13 -13 -14 -14 -14 -13 -13 -13 -13 -13 -13 -13 -13 -13 -13 -13 -13 -13 -13 -13 -13 -13 -12 -12 -12 -12 -12 -12 -12 -12 -12 -12 -12 -12 -13 -13 -13 -13 -13 -13 -12 -12 -12
-16 -16 -16 -15 -15 -15 -15 -15 -15 -15 -15 -15 -15 -15 -15 -15 -15 -15 -15 -15 -15 -14 -14 -14 -14 -14 -14 -14 -14 -14 -13 -13 -13 -14 -13 -14 -13 -13 -13 -13 -13 -13 -13 -13 -13 -12 -12 -12 -13 -13 -13 -13 -13 -13 -13 -13 -12 -12 -13 -12 -12 -12 -13 -13 -13 -13 -13 -13 -13 -13 -12 -12 -12 -12
-16 -16 -16 -16 -16 -16 -16 -15 -15 -15 -15 -15 -15 -15 -15 -15 -15 -15 -15 -15 -15 -15 -14 -14 -14 -14 -14 -14 -14 -14 -13 -14 -14 -14 -13 -13 -13 -13 -13 -13 -13 -13 -13 -13 -13 -12 -12 -12 -12 -13 -13 -13 -13 -13 -13 -13 -13 -13 -13 -13 -13 -13 -13 -13 -13 -13 -13 -13 -13 -13 -12 -12 -12 -12
-16 -16 -16 -16 -16 -16 -16 -16 -15 -15 -15 -15 -15 -15 -15 -15 -15 -15 -15 -15 -15 -15 -15 -15 -15 -14 -14 -14 -14 -14 -14 -14 -14 -14 -13 -13 -13 -13 -13 -13 -13 -13 -13 -13 -13 -13 -13 -12 -13 -13 -13 -13 -13 -13 -12 -13 -13 -13 -13 -13 -13 -13 -13 -13 -13 -13 -13 -13 -13 -13 -13 -12 -12 -12
-16 -16 -16 -16 -16 -16 -16 -16 -16 -16 -15 -15 -15 -15 -15 -15 -15 -15 -15 -15 -15 -15 -15 -15 -15 -15 -14 -14 -14 -14 -14 -14 -14 -13 -13 -13 -13 -13 -13 -13 -13 -13 -13 -13 -13 -13 -13 -13 -13 -13 -13 -13 -13 -13 -12 -12 -12 -12 -13 -13 -13 -13 -13 -13 -13 -13 -13 -13 -13 -13 -13 -13 -12 -12
-17 -17 -17 -17 -16 -16 -16 -16 -16 -16 -16 -16 -16 -15 -15 -15 -15 -15 -15 -15 -15 -15 -15 -15 -15 -15 -15 -15 -14 -14 -14 -14 -14 -14 -14 -13 -13 -13 -13 -13 -13 -13 -13 -13 -13 -13 -13 -13 -13 -13 -13 -13 -13 -12 -12 -12 -12 -12 -12 -12 -13 -13 -13 -13 -13 -13 -13 -13 -13 -13 -13 -13 -13 -13
-17 -17 -17 -17 -17 -17 -17 -17 -17 -16 -16 -16 -16 -16 -16 -16 -15 -15 -15 -15 -15 -15 -15 -15 -15 -15 -15 -15 -15 -14 -14 -14 -14 -14 -14 -14 -14 -13 -13 -13 -13 -13 -13 -13 -13 -13 -13 -13 -13 -13 -13 -13 -13 -12 -12 -12 -12 -12 -12 -13 -13 -13 -13 -13 -13 -13 -12 -12 -13 -13 -13 -13 -13 -13
-18 -17 -17 -17 -17 -17 -17 -17 -17 -17 -16 -16 -16 -16 -16 -16 -16 -16 -15 -15 -15 -15 -15 -15 -15 -15 -15 -15 -15 -15 -15 -14 -14 -14 -14 -14 -14 -14 -14 -14 -14 -13 -13 -13 -13 -13 -13 -13 -13 -13 -13 -13 -13 -13 -13 -12 -12 -12 -12 -13 -13 -13 -13 -13 -13 -13 -13 -12 -12 -13 -13 -13 -13 -13
-18 -18 -18 -17 -17 -17 -17 -17 -17 -16 -16 -16 -16 -16 -16 -16 -16 -16 -16 -16 -16 -15 -15 -15 -15 -15 -15 -15 -15 -15 -15 -15 -15 -15 -14 -14 -14 -14 -14 -14 -14 -14 -14 -14 -14 -14 -13 -13 -13 -13 -13 -13 -13 -13 -13 -13 -13 -12 -12 -13 -13 -13 -13 -13 -13 -13 -13 -12 -12 -13 -13 -13 -13 -13
-18 -18 -18 -18 -18 -17 -17 -17 -17 -17 -17 -16 -16 -16 -16 -16 -16 -16 -16 -16 -16 -16 -16 -16 -16 -15 -15 -15 -15 -15 -15 -15 -15 -15 -15 -15 -15 -14 -14 -14 -14 -14 -14 -14 -14 -14 -14 -13 -13 -13 -13 -13 -13 -13 -13 -13 -13 -13 -13 -13 -13 -13 -13 -13 -13 -13 -13 -13 -13 -13 -13 -13 -13 -13
-18 -18 -18 -18 -18 -18 -18 -17 -17 -17 -17 -17 -17 -16 -16 -16 -16 -16 -16 -16 -16 -16 -16 -16 -16 -16 -16 -16 -16 -16 -16 -16 -16 -16 -15 -15 -15 -15 -15 -15 -15 -15 -15 -14 -14 -14 -14 -14 -14 -14 -14 -14 -14 -14 -13 -13 -13 -13 -13 -13 -13 -13 -13 -13 -13 -12 -12 -13 -13 -13 -13 -13 -13 -13
-18 -18 -18 -17 -17 -17 -17 -17 -17 -17 -17 -17 -17 -17 -17 -16 -16 -16 -16 -16 -16 -16 -16 -16 -16 -16 -16 -16 -16 -16 -16 -16 -16 -16 -16 -16 -16 -16 -16 -16 -16 -16 -15 -15 -15 -15 -14 -14 -14 -14 -14 -14 -14 -14 -14 -13 -13 -13 -13 -13 -13 -13 -13 -13 -13 -12 -12 -13 -13 -13 -13 -13 -13 -13
-18 -18 -18 -18 -17 -17 -17 -17 -17 -17 -17 -17 -17 -17 -17 -17 -17 -16 -16 -16 -16 -16 -16 -16 -16 -16 -17 -17 -17 -16 -16 -16 -16 -16 -16 -16 -16 -16 -16 -16 -16 -16 -16 -16 -16 -15 -15 -15 -15 -14 -14 -14 -14 -14 -14 -14 -14 -14 -13 -13 -13 -13 -13 -13 -13 -13 -13 -13 -13 -13 -13 -14 -14 -14
-18 -18 -18 -18 -18 -18 -18 -18 -18 -18 -17 -17 -17 -17 -17 -17 -17 -17 -17 -16 -16 -16 -16 -16 -16 -16 -16 -16 -17 -17 -16 -16 -16 -16 -16 -16 -16 -16 -16 -16 -16 -16 -16 -16 -16 -16 -16 -16 -16 -15 -15 -15 -14 -14 -14 -14 -14 -14 -14 -13 -13 -13 -13 -13 -13 -13 -13 -13 -13 -13 -13 -14 -14 -14
-19 -18 -18 -18 -18 -18 -18 -18 -18 -18 -18 -18 -17 -17 -17 -17 -17 -17 -17 -17 -17 -16 -16 -16 -16 -16 -16 -16 -17 -17 -17 -17 -16 -16 -16 -16 -16 -16 -16 -16 -16 -16 -16 -16 -16 -16 -16 -16 -16 -16 -15 -15 -15 -15 -14 -14 -14 -14 -14 -14 -14 -13 -13 -13 -13 -13 -13 -13 -13 -13 -13 -14 -14 -14
-18 -18 -18 -18 -18 -18 -18 -18 -18 -18 -18 -18 -17 -17 -17 -17 -17 -17 -17 -17 -17 -17 -16 -16 -16 -16 -16 -16 -16 -16 -17 -17 -17 -16 -16 -16 -16 -16 -16 -16 -16 -16 -16 -16 -16 -16 -16 -16 -16 -16 -16 -16 -16 -15 -15 -15 -14 -14 -14 -14 -14 -14 -14 -14 -13 -13 -13 -13 -13 -13 -14 -14 -14 -14
-18 -18 -18 -18 -18 -18 -18 -18 -18 -18 -18 -18 -18 -17 -17 -17 -17 -17 -17 -17 -17 -17 -17 -16 -16 -16 -16 -16 -16 -16 -16 -16 -16 -16 -16 -16 -16 -16 -16 -16 -16 -16 -17 -16 -16 -16 -16 -16 -16 -16 -16 -16 -16 -16 -16 -15 -15 -14 -14 -14 -14 -14 -14 -14 -14 -14 -13 -13 -14 -14 -14 -14 -14 -14
-18 -18 -18 -18 -18 -18 -18 -18 -18 -18 -18 -18 -18 -17 -17 -17 -17 -17 -17 -17 -17 -17 -17 -17 -16 -16 -16 -16 -16 -16 -16 -16 -16 -16 -16 -16 -16 -16 -16 -16 -16 -16 -17 -17 -16 -16 -16 -17 -16 -16 -16 -16 -16 -16 -16 -16 -16 -15 -15 -15 -14 -14 -14 -14 -14 -14 -14 -14 -14 -14 -14 -14 -14 -15
-19 -19 -19 -18 -18 -18 -18 -18 -18 -18 -18 -18 -18 -18 -17 -18 -18 -17 -17 -17 -17 -17 -17 -17 -17 -17 -17 -17 -17 -17 -17 -17 -17 -17 -17 -17 -17 -17 -17 -17 -17 -17 -17 -17 -17 -16 -16 -17 -17 -16 -16 -17 -17 -16 -16 -16 -16 -16 -15 -15 -15 -15 -15 -15 -15 -15 -14 -14 -14 -14 -14 -15 -14 -15
-19 -19 -19 -19 -19 -18 -18 -18 -18 -18 -18 -18 -18 -18 -18 -18 -18 -18 -17 -17 -17 -17 -17 -17 -17 -17 -17 -17 -17 -17 -17 -17 -17 -17 -17 -17 -17 -17 -17 -17 -17 -17 -17 -17 -17 -17 -17 -17 -17 -17 -17 -17 -17 -17 -16 -16 -17 -17 -16 -15 -15 -15 -15 -15 -15 -15 -15 -15 -15 -15 -15 -15 -15 -15
-19 -19 -19 -19 -19 -19 -19 -19 -18 -18 -18 -18 -18 -18 -18 -18 -18 -18 -18 -18 -18 -18 -17 -17 -17 -17 -17 -17 -17 -17 -17 -17 -17 -17 -17 -17 -17 -17 -17 -17 -17 -17 -17 -17 -17 -17 -17 -17 -17 -17 -17 -17 -17 -17 -17 -17 -17 -17 -17 -16 -16 -16 -15 -15 -15 -15 -15 -15 -15 -15 -15 -16 -15 -15
-20 -20 -19 -19 -19 -19 -19 -19 -19 -18 -18 -18 -18 -18 -18 -18 -18 -18 -18 -18 -18 -18 -18 -18 -18 -17 -17 -17 -17 -17 -18 -18 -18 -18 -17 -18 -18 -18 -17 -17 -17 -17 -17 -17 -17 -17 -17 -17 -17 -17 -17 -17 -17 -17 -17 -17 -17 -17 -17 -17 -16 -16 -16 -16 -16 -16 -16 -16 -16 -16 -16 -16 -16 -16
-20 -20 -19 -19 -19 -19 -19 -19 -19 -19 -19 -19 -18 -18 -18 -18 -18 -18 -18 -18 -18 -18 -18 -18 -18 -18 -18 -18 -18 -18 -18 -18 -18 -18 -18 -18 -18 -18 -18 -18 -18 -17 -17 -17 -17 -17 -17 -17 -18 -18 -18 -18 -17 -17 -17 -17 -17 -18 -18 -17 -17 -17 -17 -16 -16 -16 -16 -16 -16 -16 -16 -16 -16 -17
-20 -20 -20 -20 -20 -20 -20 -20 -19 -19 -19 -19 -19 -19 -18 -18 -18 -18 -18 -18 -18 -18 -18 -18 -18 -18 -18 -18 -18 -18 -18 -18 -18 -18 -18 -18 -18 -18 -18 -18 -17 -17 -17 -17 -17 -17 -18 -18 -18 -18 -18 -18 -18 -18 -17 -17 -17 -18 -18 -18 -17 -17 -17 -17 -17 -16 -17 -17 -17 -17 -17 -17 -16 -17
-20 -20 -20 -20 -20 -20 -20 -20 -20 -19 -19 -19 -19 -19 -19 -18 -18 -18 -18 -18 -18 -18 -18 -18 -18 -19 -18 -18 -18 -18 -18 -18 -18 -18 -18 -18 -18 -18 -18 -18 -18 -17 -17 -18 -18 -18 -18 -18 -18 -18 -18 -18 -18 -18 -18 -18 -18 -18 -18 -18 -18 -18 -18 -17 -17 -17 -17 -17 -17 -17 -17 -17 -17 -17
-20 -20 -20 -20 -20 -20 -20 -20 -20 -20 -19 -19 -19 -19 -19 -19 -19 -18 -18 -18 -18 -18 -18 -18 -18 -19 -19 -19 -19 -19 -19 -19 -18 -18 -18 -18 -18 -18 -18 -18 -18 -18 -18 -18 -18 -18 -18 -18 -18 -19 -19 -19 -19 -19 -19 -18 -19 -19 -19 -18 -18 -18 -18 -18 -18 -18 -17 -17 -17 -17 -17 -17 -17 -17
-20 -20 -20 -20 -20 -20 -20 -20 -20 -20 -19 -19 -19 -19 -19 -19 -19 -19 -19 -19 -19 -19 -19 -19 -19 -19 -19 -19 -19 -19 -19 -19 -19 -18 -18 -18 -18 -18 -18 -18 -18 -18 -18 -18 -18 -18 -18 -18 -19 -19 -20 -20 -20 -20 -20 -19 -19 -20 -20 -19 -19 -19 -19 -19 -18 -18 -18 -18 -18 -18 -18 -18 -18 -18
-20 -20 -20 -20 -20 -20 -20 -20 -20 -19 -19 -19 -19 -19 -19 -19 -19 -19 -19 -19 -19 -19 -19 -19 -19 -19 -19 -19 -19 -19 -19 -19 -19 -18 -18 -18 -18 -18 -18 -18 -18 -18 -18 -18 -18 -18 -18 -19 -19 -19 -20 -20 -20 -20 -20 -20 -20 -20 -20 -20 -20 -19 -19 -19 -19 -19 -18 -18 -18 -18 -18 -18 -18 -18
-21 -21 -21 -21 -21 -20 -20 -20 -20 -20 -20 -20 -20 -20 -20 -20 -20 -20 -20 -20 -20 -19 -19 -19 -19 -19 -19 -19 -19 -19 -19 -19 -19 -19 -19 -18 -18 -18 -18 -18 -18 -18 -18 -18 -18 -18 -18 -19 -19 -19 -20 -20 -20 -20 -20 -20 -21 -21 -21 -21 -20 -20 -20 -20 -20 -19 -19 -19 -19 -19 -19 -18 -18 -18
-21 -21 -21 -21 -21 -20 -20 -20 -20 -20 -20 -20 -20 -20 -20 -19 -19 -20 -20 -20 -20 -19 -19 -19 -19 -19 -19 -19 -19 -19 -19 -19 -19 -19 -19 -18 -18 -18 -18 -18 -18 -18 -18 -18 -18 -18 -18 -19 -19 -19 -20 -20 -20 -20 -20 -20 -21 -21 -21 -21 -21 -20 -20 -20 -20 -20 -20 -19 -19 -19 -19 -19 -19 -18
-22 -22 -21 -21 -21 -20 -20 -20 -20 -20 -20 -20 -19 -19 -19 -19 -19 -19 -19 -19 -19 -19 -19 -19 -19 -19 -19 -19 -19 -19 -19 -19 -19 -19 -19 -18 -18 -19 -18 -18 -18 -18 -18 -18 -18 -19 -19 -19 -19 -19 -20 -20 -20 -20 -20 -20 -21 -21 -21 -22 -21 -21 -21 -20 -20 -20 -20 -20 -20 -19 -19 -19 -19 -19
-22 -21 -21 -21 -21 -20 -20 -20 -20 -20 -19 -19 -19 -19 -19 -19 -19 -19 -19 -19 -19 -19 -19 -19 -19 -19 -19 -19 -19 -19 -19 -19 -19 -19 -19 -18 -18 -19 -19 -18 -18 -18 -18 -19 -19 -19 -19 -19 -19 -19 -20 -20 -20 -20 -20 -20 -20 -21 -21 -21 -21 -21 -21 -21 -20 -20 -20 -20 -20 -20 -20 -20 -19 -19
-21 -21 -21 -21 -20 -20 -20 -20 -20 -20 -20 -19 -19 -19 -19 -19 -19 -19 -19 -19 -19 -19 -19 -20 -20 -20 -19 -19 -19 -19 -19 -19 -19 -19 -19 -19 -19 -19 -19 -19 -19 -19 -19 -19 -19 -19 -19 -19 -19 -19 -19 -20 -20 -20 -20 -20 -20 -20 -21 -21 -21 -21 -21 -21 -21 -20 -20 -20 -20 -20 -20 -20 -20 -19
-21 -21 -21 -21 -21 -20 -20 -20 -20 -20 -20 -20 -20 -20 -19 -19 -19 -19 -19 -19 -20 -20 -20 -20 -20 -20 -20 -20 -19 -19 -19 -19 -19 -19 -19 -19 -18 -18 -19 -19 -19 -19 -19 -19 -19 -19 -19 -19 -19 -19 -19 -20 -20 -20 -20 -20 -20 -20 -21 -21 -21 -21 -21 -21 -21 -21 -21 -20 -20 -20 -20 -20 -20 -20
-22 -21 -21 -21 -21 -21 -21 -20 -20 -20 -20 -20 -20 -20 -20 -20 -20 -20 -20 -20 -20 -20 -20 -20 -20 -20 -20 -20 -20 -19 -19 -19 -19 -19 -19 -19 -18 -19 -19 -19 -19 -19 -19 -19 -19 -19 -19 -19 -19 -19 -19 -19 -20 -20 -20 -20 -20 -20 -21 -21 -21 -21 -21 -21 -21 -21 -21 -21 -20 -20 -20 -20 -20 -20
-22 -22 -21 -21 -21 -21 -21 -21 -21 -21 -20 -20 -20 -20 -20 -20 -20 -20 -20 -20 -20 -20 -20 -20 -20 -20 -20 -20 -20 -20 -20 -19 -19 -19 -19 -19 -19 -19 -19 -19 -20 -20 -20 -19 -19 -19 -19 -19 -19 -19 -19 -19 -20 -20 -20 -20 -20 -21 -21 -21 -21 -21 -21 -21 -21 -21 -21 -21 -21 -20 -20 -20 -20 -20
-22 -22 -22 -22 -22 -21 -21 -21 -21 -21 -20 -20 -20 -20 -20 -20 -20 -20 -20 -20 -20 -20 -20 -20 -20 -20 -20 -20 -20 -20 -20 -20 -20 -19 -19 -19 -19 -19 -19 -19 -19 -20 -20 -19 -19 -19 -19 -19 -19 -19 -19 -20 -20 -20 -20 -21 -21 -21 -21 -21 -21 -21 -21 -21 -21 -21 -21 -21 -21 -21 -20 -20 -20 -20
-22 -22 -22 -22 -22 -21 -21 -21 -21 -21 -20 -20 -20 -20 -20 -20 -20 -20 -20 -20 -20 -20 -20 -20 -20 -20 -20 -20 -20 -20 -20 -20 -20 -20 -20 -20 -20 -19 -19 -19 -19 -19 -19 -19 -19 -19 -19 -19 -19 -20 -20 -20 -20 -20 -21 -21 -21 -21 -21 -22 -22 -21 -21 -21 -21 -21 -21 -21 -21 -21 -20 -20 -20 -20
-22 -22 -22 -22 -21 -21 -21 -21 -21 -20 -20 -20 -20 -20 -20 -20 -20 -20 -20 -20 -20 -20 -20 -20 -20 -20 -20 -21 -21 -20 -20 -20 -20 -20 -20 -20 -20 -20 -20 -19 -19 -19 -19 -19 -20 -20 -20 -19 -20 -20 -20 -20 -20 -20 -21 -21 -21 -21 -22 -22 -22 -22 -22 -22 -22 -22 -21 -21 -21 -21 -20 -20 -20 -21
-22 -22 -22 -21 -21 -21 -21 -21 -20 -20 -20 -20 -21 -20 -20 -20 -20 -20 -21 -21 -21 -21 -21 -21 -21 -21 -21 -21 -21 -20 -20 -20 -20 -20 -20 -20 -20 -20 -20 -19 -20 -19 -19 -20 -20 -20 -20 -20 -20 -20 -20 -20 -20 -21 -21 -21 -21 -21 -21 -22 -22 -22 -22 -22 -22 -22 -21 -21 -21 -21 -21 -21 -21 -21
-22 -22 -22 -21 -21 -21 -21 -20 -20 -20 -20 -21 -21 -21 -21 -21 -21 -21 -21 -21 -21 -21 -21 -21 -21 -21 -21 -21 -21 -20 -20 -20 -20 -20 -20 -20 -20 -20 -19 -19 -19 -20 -20 -20 -20 -20 -20 -20 -20 -20 -20 -20 -20 -21 -21 -21 -21 -21 -21 -21 -22 -22 -22 -22 -22 -21 -21 -21 -21 -21 -21 -21 -21 -21
-22 -22 -22 -21 -21 -21 -21 -20 -20 -20 -20 -21 -21 -21 -21 -21 -21 -21 -21 -21 -21 -21 -21 -21 -21 -21 -21 -21 -21 -20 -20 -20 -20 -20 -20 -20 -20 -20 -19 -19 -20 -20 -20 -20 -20 -20 -20 -20 -20 -20 -20 -20 -21 -21 -21 -21 -21 -21 -21 -21 -22 -22 -22 -22 -21 -21 -21 -21 -21 -21 -21 -21 -21 -21
-22 -22 -22 -21 -21 -21 -21 -20 -20 -20 -20 -20 -20 -21 -21 -21 -21 -21 -21 -21 -21 -21 -21 -21 -21 -21 -21 -21 -20 -20 -20 -20 -20 -20 -20 -20 -20 -20 -20 -20 -20 -20 -20 -20 -20 -21 -21 -21 -20 -20 -20 -20 -20 -21 -21 -21 -21 -21 -21 -21 -22 -22 -22 -22 -21 -21 -21 -21 -21 -21 -21 -21 -20 -20
-22 -22 -22 -21 -21 -21 -20 -20 -20 -20 -20 -20 -20 -21 -21 -21 -21 -21 -21 -21 -21 -21 -21 -21 -21 -21 -21 -21 -21 -20 -20 -20 -20 -20 -20 -20 -20 -20 -20 -20 -20 -20 -20 -21 -21 -21 -21 -21 -20 -20 -20 -20 -20 -21 -21 -21 -21 -21 -21 -22 -22 -22 -22 -21 -21 -21 -21 -21 -21 -20 -20 -21 -21 -21
-22 -22 -22 -21 -21 -21 -21 -20 -20 -20 -20 -20 -21 -21 -21 -21 -21 -21 -21 -21 -21 -21 -21 -21 -21 -21 -21 -21 -21 -20 -20 -20 -20 -20 -20 -20 -20 -20 -20 -20 -20 -21 -21 -21 -21 -21 -21 -21 -21 -20 -20 -20 -20 -21 -21 -21 -21 -21 -22 -22 -22 -21 -21 -21 -21 -21 -21 -21 -20 -20 -20 -21 -21 -21
Height
5744 5745 5745 5746 5746 5747 5747 5748 5749 5750 5750 5751 5752 5753 5754 5754 5755 5755 5756 5756 5756 5756 5756 5757 5758 5759 5761 5762 5762 5763 5764 5765 5767 5767 5767 5768 5767 5769 5771 5772 5772 5773 5774 5774 5774 5775 5775 5777 5778 5779 5779 5779 5779 5780 5780 5780 5781 5781 5781 5781 5782 5783 5783 5783 5784 5784 5784 5784 5785 5785 5786 5786 5786 5786
5742 5743 5743 5744 5744 5745 5745 5746 5746 5747 5748 5748 5749 5750 5751 5752 5752 5753 5753 5753 5752 5753 5753 5754 5754 5755 5756 5757 5758 5759 5760 5761 5762 5762 5763 5763 5763 5764 5766 5766 5767 5768 5768 5768 5769 5769 5770 5771 5773 5774 5774 5774 5775 5775 5775 5775 5775 5776 5776 5776 5776 5777 5777 5778 5778 5778 5778 5779 5779 5780 5780 5781 5782 5782
5740 5740 5741 5741 5742 5743 5743 5744 5744 5745 5745 5745 5746 5747 5748 5749 5750 5750 5750 5750 5749 5750 5750 5750 5751 5751 5752 5753 5753 5754 5755 5756 5757 5757 5757 5759 5759 5760 5760 5761 5762 5763 5763 5763 5764 5764 5765 5765 5767 5768 5769 5769 5769 5770 5770 5771 5771 5771 5771 5770 5770 5771 5772 5773 5773 5773 5773 5773 5774 5774 5775 5776 5777 5777
5737 5737 5738 5738 5739 5740 5740 5741 5741 5742 5742 5743 5743 5744 5744 5745 5746 5747 5748 5748 5747 5747 5747 5747 5747 5748 5749 5749 5749 5749 5750 5751 5752 5752 5753 5754 5755 5755 5756 5757 5758 5758 5759 5759 5759 5760 5760 5761 5761 5763 5764 5764 5764 5764 5765 5765 5766 5766 5767 5766 5766 5767 5767 5768 5769 5769 5769 5768 5768 5769 5770 5771 5772 5772
5733 5734 5735 5735 5735 5736 5736 5737 5738 5738 5739 5739 5740 5741 5741 5742 5742 5743 5743 5744 5744 5744 5744 5744 5744 5744 5745 5745 5745 5745 5746 5746 5747 5748 5748 5749 5750 5751 5751 5752 5753 5754 5754 5754 5754 5755 5755 5756 5756 5757 5758 5759 5759 5759 5759 5760 5760 5761 5762 5762 5762 5762 5762 5763 5764 5765 5765 5764 5764 5764 5764 5765 5766 5767
5729 5730 5730 5731 5731 5732 5732 5733 5733 5734 5734 5735 5736 5736 5737 5738 5739 5739 5740 5740 5741 5740 5740 5740 5740 5741 5741 5741 5741 5741 5742 5742 5742 5742 5743 5744 5745 5746 5747 5747 5748 5749 5750 5750 5749 5750 5750 5751 5751 5752 5752 5753 5753 5754 5754 5754 5754 5755 5756 5757 5757 5757 5757 5757 5759 5760 5760 5760 5760 5760 5759 5759 5760 5761
5725 5726 5726 5727 5727 5728 5728 5728 5729 5729 5730 5730 5731 5731 5732 5733 5734 5735 5736 5736 5737 5737 5736 5735 5735 5736 5736 5736 5736 5736 5736 5737 5737 5737 5738 5739 5740 5741 5742 5743 5743 5745 5746 5745 5745 5745 5745 5746 5746 5746 5747 5747 5748 5748 5748 5749 5749 5749 5750 5751 5751 5752 5752 5752 5752 5753 5753 5754 5756 5756 5754 5754 5754 5755
5721 5722 5722 5723 5723 5724 5724 5724 5725 5725 5726 5726 5726 5727 5727 5728 5728 5729 5730 5731 5732 5733 5732 5731 5731 5731 5731 5731 5731 5731 5731 5731 5732 5732 5732 5733 5734 5735 5736 5737 5737 5738 5740 5741 5740 5740 5740 5740 5741 5741 5741 5742 5742 5743 5743 5744 5744 5744 5744 5745 5745 5746 5746 5746 5747 5746 5746 5747 5750 5751 5750 5748 5748 5749
5718 5718 5718 5719 5719 5719 5720 5720 5720 5721 5721 5721 5722 5722 5722 5723 5723 5724 5724 5725 5726 5726 5727 5727 5727 5726 5726 5726 5726 5726 5726 5727 5727 5727 5727 5728 5728 5729 5730 5730 5731 5731 5733 5734 5734 5735 5735 5735 5736 5736 5736 5736 5736 5737 5737 5738 5739 5739 5739 5739 5739 5740 5740 5740 5741 5741 5740 5741 5743 5744 5744 5743 5742 5743
5714 5714 5714 5715 5715 5715 5715 5715 5716 5716 5716 5717 5717 5717 5717 5717 5718 5719 5719 5719 5720 5720 5721 5721 5721 5721 5721 5721 5721 5721 5721 5721 5722 5722 5723 5723 5723 5723 5724 5725 5725 5725 5726 5726 5727 5728 5728 5729 5730 5730 5730 5731 5731 5731 5731 5732 5733 5734 5734 5734 5734 5734 5734 5734 5735 5735 5736 5736 5736 5737 5737 5737 5737 5737
5710 5710 5710 5711 5711 5711 5711 5711 5711 5711 5711 5712 5712 5712 5712 5712 5712 5713 5713 5714 5714 5714 5715 5715 5715 5715 5716 5716 5716 5716 5716 5716 5716 5717 5717 5718 5718 5718 5718 5719 5719 5719 5720 5720 5721 5721 5721 5722 5723 5724 5724 5724 5725 5725 5725 5726 5726 5727 5728 5729 5728 5728 5728 5728 5729 5729 5730 5730 5729 5729 5731 5731 5731 5732
5705 5705 5705 5705 5705 5705 5705 5706 5706 5706 5706 5706 5707 5707 5707 5707 5707 5707 5707 5708 5708 5709 5709 5709 5709 5710 5710 5711 5711 5711 5711 5711 5711 5711 5712 5712 5712 5712 5712 5713 5713 5713 5714 5714 5715 5715 5715 5716 5716 5717 5717 5717 5718 5719 5719 5720 5720 5720 5721 5722 5722 5722 5722 5722 5723 5723 5724 5724 5724 5723 5724 5725 5725 5726
5700 5700 5700 5700 5700 5699 5699 5700 5700 5700 5701 5701 5702 5701 5701 5701 5701 5701 5702 5702 5702 5703 5703 5704 5704 5704 5705 5705 5706 5706 5705 5705 5706 5706 5706 5706 5707 5707 5707 5707 5706 5706 5707 5708 5709 5709 5709 5710 5710 5710 5711 5711 5711 5711 5713 5713 5714 5714 5714 5715 5716 5716 5717 5717 5717 5717 5718 5718 5718 5717 5718 5720 5720 5720
5694 5694 5694 5694 5694 5694 5693 5693 5694 5694 5694 5695 5695 5696 5696 5696 5696 5696 5696 5696 5696 5697 5697 5698 5698 5699 5699 5699 5699 5700 5700 5699 5699 5700 5700 5701 5701 5701 5701 5701 5701 5700 5700 5701 5701 5702 5703 5703 5703 5703 5704 5704 5704 5704 5705 5706 5707 5707 5708 5708 5709 5710 5710 5711 5711 5710 5711 5712 5712 5712 5712 5714 5714 5714
5689 5689 5689 5689 5689 5688 5688 5687 5687 5688 5688 5688 5688 5689 5690 5690 5690 5690 5690 5690 5690 5690 5691 5692 5693 5693 5693 5693 5693 5693 5693 5693 5693 5693 5694 5694 5695 5695 5695 5696 5695 5694 5694 5694 5695 5695 5695 5695 5695 5696 5696 5697 5698 5698 5698 5699 5699 5700 5701 5701 5702 5703 5704 5704 5704 5704 5705 5705 5706 5706 5707 5707 5708 5708
5684 5684 5684 5683 5683 5683 5682 5682 5681 5681 5682 5682 5682 5682 5682 5683 5683 5683 5683 5683 5683 5684 5684 5686 5686 5687 5686 5686 5686 5686 5686 5686 5686 5686 5686 5686 5687 5688 5689 5690 5689 5688 5687 5688 5688 5688 5687 5687 5687 5688 5689 5689 5689 5690 5692 5692 5692 5692 5693 5694 5695 5696 5697 5698 5698 5698 5699 5699 5699 5700 5701 5701 5702 5702
5677 5677 5677 5677 5676 5676 5676 5675 5675 5674 5675 5675 5675 5675 5675 5675 5675 5675 5676 5676 5676 5676 5677 5678 5679 5679 5679 5679 5679 5679 5679 5679 5679 5679 5679 5678 5679 5679 5680 5682 5683 5682 5681 5680 5680 5682 5681 5679 5678 5679 5680 5680 5680 5681 5683 5684 5684 5685 5686 5687 5687 5688 5689 5690 5691 5691 5692 5693 5693 5694 5695 5695 5696 5697
5669 5670 5670 5669 5669 5669 5668 5668 5668 5667 5667 5667 5668 5668 5668 5668 5668 5668 5668 5668 5668 5668 5669 5670 5671 5671 5670 5671 5671 5670 5670 5671 5671 5672 5672 5671 5671 5671 5672 5673 5674 5675 5674 5672 5671 5674 5675 5672 5670 5671 5670 5671 5671 5671 5674 5676 5676 5676 5678 5679 5679 5680 5681 5682 5683 5684 5685 5686 5687 5687 5688 5689 5690 5691
5661 5661 5662 5661 5661 5661 5661 5660 5660 5660 5659 5660 5660 5660 5660 5660 5660 5660 5661 5660 5660 5659 5660 5660 5661 5662 5662 5662 5662 5662 5662 5662 5662 5663 5663 5664 5664 5664 5664 5665 5666 5666 5666 5665 5663 5665 5666 5664 5663 5663 5661 5662 5663 5662 5663 5667 5668 5667 5668 5670 5671 5672 5673 5674 5675 5676 5677 5679 5680 5681 5682 5682 5683 5685
5653 5653 5653 5653 5653 5653 5652 5652 5652 5652 5651 5652 5652 5652 5652 5653 5653 5653 5653 5652 5651 5651 5651 5652 5652 5652 5652 5652 5653 5653 5652 5652 5652 5652 5654 5655 5654 5655 5656 5656 5657 5657 5657 5656 5655 5655 5656 5655 5655 5656 5654 5652 5653 5652 5653 5658 5660 5658 5658 5660 5662 5663 5665 5666 5667 5668 5670 5671 5672 5674 5675 5676 5676 5678
5645 5645 5645 5645 5644 5644 5644 5644 5644 5644 5643 5643 5644 5644 5644 5644 5644 5645 5644 5643 5643 5642 5643 5643 5642 5642 5643 5643 5643 5643 5643 5643 5642 5641 5644 5644 5643 5644 5646 5647 5648 5648 5648 5647 5645 5645 5646 5646 5646 5647 5645 5643 5644 5644 5643 5648 5652 5650 5648 5650 5652 5654 5656 5657 5659 5660 5662 5664 5665 5666 5668 5669 5669 5670
5637 5637 5637 5637 5636 5636 5635 5635 5635 5635 5635 5635 5635 5635 5635 5635 5636 5635 5634 5634 5634 5634 5634 5634 5633 5633 5633 5632 5633 5633 5633 5633 5631 5631 5634 5633 5631 5633 5636 5636 5637 5638 5638 5638 5635 5634 5636 5636 5635 5636 5635 5634 5635 5635 5634 5638 5643 5642 5639 5640 5642 5644 5646 5649 5651 5652 5654 5656 5657 5658 5661 5663 5664 5664
5629 5628 5628 5628 5628 5627 5627 5626 5626 5626 5626 5626 5626 5626 5627 5627 5627 5625 5624 5625 5625 5625 5625 5624 5624 5624 5623 5623 5623 5623 5623 5622 5621 5621 5622 5621 5621 5624 5625 5624 5625 5627 5628 5627 5624 5624 5625 5624 5624 5626 5625 5624 5625 5625 5625 5629 5633 5632 5630 5631 5632 5634 5637 5639 5642 5644 5645 5647 5649 5651 5653 5656 5657 5657
5621 5620 5619 5619 5619 5620 5620 5619 5618 5617 5617 5617 5617 5617 5618 5618 5617 5616 5616 5616 5615 5615 5615 5615 5614 5614 5613 5613 5613 5613 5612 5612 5611 5611 5610 5609 5609 5612 5613 5613 5613 5615 5617 5615 5612 5614 5615 5614 5614 5615 5613 5613 5614 5613 5614 5619 5622 5621 5621 5622 5623 5624 5627 5629 5632 5635 5636 5638 5641 5643 5645 5647 5648 5649
5613 5613 5612 5611 5611 5611 5612 5611 5610 5609 5609 5608 5608 5608 5608 5607 5607 5606 5606 5606 5605 5604 5604 5604 5604 5604 5603 5603 5603 5602 5601 5601 5601 5601 5600 5598 5598 5598 5599 5600 5600 5602 5605 5602 5599 5602 5605 5604 5603 5602 5601 5601 5601 5600 5602 5607 5611 5610 5610 5612 5613 5614 5617 5620 5623 5626 5628 5630 5632 5635 5636 5639 5640 5642
5605 5605 5605 5604 5603 5603 5603 5602 5602 5601 5600 5599 5599 5598 5597 5596 5595 5594 5594 5594 5594 5593 5593 5592 5592 5593 5592 5592 5591 5591 5591 5591 5590 5590 5590 5588 5587 5587 5587 5587 5586 5589 5591 5589 5587 5589 5592 5592 5592 5590 5589 5589 5589 5589 5590 5595 5599 5599 5599 5601 5604 5605 5607 5611 5613 5617 5619 5621 5624 5626 5628 5630 5633 5636
5598 5597 5597 5596 5595 5595 5595 5594 5593 5592 5591 5590 5589 5588 5586 5585 5584 5583 5583 5582 5581 5581 5581 5581 5581 5581 5581 5581 5580 5579 5579 5579 5579 5579 5578 5577 5576 5575 5576 5575 5574 5575 5576 5575 5575 5576 5578 5579 5579 5579 5579 5579 5579 5579 5581 5584 5589 5590 5589 5591 5595 5596 5598 5601 5604 5608 5611 5613 5616 5618 5621 5623 5626 5629
5589 5588 5588 5587 5587 5586 5586 5586 5585 5584 5582 5581 5579 5578 5577 5575 5574 5573 5572 5571 5570 5570 5570 5570 5570 5570 5569 5569 5568 5568 5567 5567 5567 5567 5567 5566 5564 5564 5564 5564 5563 5563 5563 5562 5562 5564 5565 5566 5567 5568 5568 5568 5569 5570 5572 5573 5578 5581 5581 5582 5585 5588 5590 5593 5596 5599 5602 5605 5608 5611 5614 5618 5620 5621
5580 5580 5579 5579 5578 5578 5578 5577 5576 5575 5573 5572 5570 5569 5567 5565 5565 5563 5562 5562 5561 5561 5560 5560 5559 5559 5558 5557 5557 5556 5556 5555 5555 5555 5555 5554 5554 5553 5552 5552 5552 5551 5551 5550 5551 5552 5553 5555 5556 5556 5557 5558 5559 5561 5563 5564 5568 5573 5574 5574 5577 5580 5582 5585 5588 5591 5594 5597 5600 5603 5607 5610 5613 5614
5572 5572 5572 5571 5571 5570 5569 5568 5567 5566 5564 5562 5561 5559 5557 5556 5555 5554 5553 5553 5552 5551 5551 5550 5550 5549 5548 5547 5546 5545 5545 5545 5544 5543 5543 5543 5543 5542 5541 5541 5540 5540 5540 5541 5541 5542 5543 5544 5546 5546 5547 5548 5549 5551 5554 5555 5559 5565 5568 5567 5569 5572 5575 5577 5580 5583 5587 5590 5593 5596 5599 5603 5607 5609
5566 5565 5564 5564 5563 5562 5561 5560 5558 5556 5555 5553 5551 5550 5548 5547 5546 5545 5544 5544 5543 5542 5541 5540 5540 5539 5537 5536 5535 5534 5534 5534 5533 5532 5531 5532 5532 5531 5530 5530 5530 5531 5531 5531 5532 5532 5533 5534 5536 5537 5538 5540 5540 5542 5545 5546 5550 5557 5561 5561 5562 5565 5568 5570 5573 5576 5580 5583 5586 5589 5593 5597 5601 5602
5559 5558 5557 5556 5555 5553 5552 5550 5548 5546 5545 5543 5542 5541 5539 5538 5537 5536 5535 5534 5533 5532 5531 5530 5530 5528 5527 5526 5525 5524 5524 5524 5522 5521 5521 5522 5522 5521 5520 5521 5522 5522 5522 5522 5523 5523 5523 5524 5525 5527 5529 5531 5532 5533 5536 5538 5542 5549 5554 5555 5555 5558 5561 5563 5566 5569 5573 5577 5580 5583 5586 5589 5593 5594
5552 5551 5549 5548 5546 5544 5543 5541 5539 5537 5536 5534 5533 5531 5530 5528 5527 5526 5525 5524 5523 5522 5521 5520 5519 5518 5517 5516 5515 5514 5514 5514 5513 5512 5513 5513 5512 5512 5512 5513 5513 5514 5514 5515 5515 5515 5515 5515 5516 5518 5521 5523 5525 5526 5528 5531 5534 5540 5546 5548 5549 5552 5554 5557 5560 5563 5567 5570 5574 5577 5579 5582 5585 5587
5546 5544 5542 5540 5538 5536 5534 5532 5531 5529 5527 5526 5524 5522 5521 5519 5518 5516 5515 5514 5513 5512 5511 5510 5509 5508 5507 5506 5506 5505 5505 5505 5505 5505 5505 5504 5504 5504 5504 5504 5505 5506 5507 5507 5508 5508 5508 5508 5509 5510 5512 5515 5517 5519 5521 5523 5527 5533 5538 5541 5543 5545 5548 5551 5554 5557 5560 5564 5567 5570 5573 5576 5578 5581
5539 5537 5534 5532 5530 5528 5526 5524 5523 5521 5519 5517 5515 5513 5511 5509 5508 5507 5505 5504 5503 5503 5502 5501 5500 5500 5499 5498 5498 5498 5498 5498 5498 5497 5497 5496 5496 5496 5496 5497 5497 5498 5499 5500 5501 5500 5501 5502 5503 5503 5505 5507 5510 5513 5515 5517 5521 5526 5531 5534 5537 5539 5542 5546 5548 5551 5554 5558 5562 5565 5567 5570 5572 5575
5533 5530 5528 5525 5523 5521 5519 5517 5514 5512 5510 5508 5506 5504 5502 5500 5499 5498 5497 5496 5495 5495 5494 5494 5493 5492 5492 5491 5491 5491 5491 5491 5491 5490 5489 5489 5488 5488 5488 5489 5490 5491 5491 5493 5494 5494 5494 5495 5496 5497 5499 5501 5504 5507 5510 5512 5516 5521 5524 5527 5530 5533 5537 5540 5543 5546 5549 5553 5556 5559 5562 5564 5566 5569
5527 5525 5522 5519 5516 5514 5511 5508 5506 5503 5501 5499 5497 5495 5493 5492 5491 5490 5490 5489 5488 5488 5488 5487 5486 5485 5485 5485 5485 5484 5484 5484 5484 5483 5482 5482 5481 5481 5481 5482 5483 5484 5485 5486 5487 5487 5488 5489 5491 5492 5493 5495 5498 5501 5504 5507 5511 5515 5518 5521 5524 5528 5531 5535 5538 5541 5544 5547 5550 5553 5556 5558 5561 5563
5522 5519 5516 5512 5509 5506 5503 5500 5497 5495 5492 5490 5489 5487 5486 5486 5485 5484 5484 5483 5483 5482 5481 5480 5479 5479 5478 5478 5478 5478 5478 5477 5477 5476 5476 5475 5475 5475 5475 5476 5477 5477 5478 5479 5481 5482 5483 5484 5486 5487 5489 5491 5493 5495 5499 5503 5507 5510 5513 5516 5519 5523 5526 5530 5533 5536 5538 5541 5545 5548 5551 5553 5556 5559
5516 5513 5509 5506 5502 5499 5495 5492 5489 5487 5485 5484 5483 5482 5481 5481 5480 5479 5479 5478 5477 5476 5475 5474 5474 5473 5473 5473 5472 5472 5472 5471 5471 5470 5470 5470 5469 5469 5469 5470 5471 5471 5472 5474 5475 5477 5478 5480 5482 5483 5485 5486 5487 5490 5494 5498 5501 5505 5508 5511 5515 5518 5522 5525 5528 5531 5533 5537 5541 5544 5547 5549 5552 5554
5511 5507 5503 5499 5495 5492 5488 5485 5483 5481 5480 5479 5478 5478 5477 5476 5475 5475 5474 5473 5473 5472 5471 5470 5470 5469 5468 5468 5467 5466 5466 5465 5465 5464 5464 5464 5464 5464 5464 5465 5465 5466 5467 5469 5471 5472 5474 5476 5478 5479 5481 5482 5483 5485 5489 5492 5496 5500 5503 5506 5510 5513 5517 5520 5523 5526 5529 5533 5536 5539 5542 5545 5548 5550
5506 5501 5497 5493 5489 5486 5482 5479 5477 5476 5476 5475 5475 5474 5473 5472 5471 5471 5471 5470 5469 5469 5468 5467 5466 5465 5464 5463 5462 5461 5460 5460 5459 5459 5459 5458 5458 5458 5458 5459 5460 5461 5462 5464 5466 5468 5470 5471 5473 5474 5476 5478 5480 5481 5484 5488 5492 5496 5500 5503 5506 5510 5513 5516 5519 5522 5526 5529 5532 5535 5539 5541 5543 5545
5501 5496 5492 5487 5483 5480 5477 5474 5473 5473 5472 5472 5471 5470 5469 5469 5469 5468 5468 5467 5467 5466 5464 5463 5462 5461 5459 5458 5457 5456 5455 5455 5454 5453 5453 5452 5452 5452 5452 5453 5455 5457 5458 5460 5461 5464 5465 5467 5468 5471 5473 5475 5476 5478 5481 5485 5490 5494 5497 5500 5504 5507 5510 5513 5517 5520 5523 5526 5529 5532 5535 5538 5540 5542
5496 5492 5487 5483 5479 5475 5472 5470 5470 5469 5469 5468 5468 5467 5466 5466 5466 5466 5466 5465 5464 5462 5461 5459 5458 5456 5455 5454 5453 5451 5450 5449 5448 5448 5447 5447 5446 5446 5447 5448 5450 5452 5454 5456 5457 5459 5461 5463 5465 5467 5470 5471 5473 5475 5479 5483 5487 5491 5495 5498 5502 5505 5508 5511 5514 5518 5521 5524 5527 5530 5532 5534 5536 5539
5493 5488 5483 5479 5474 5471 5468 5467 5467 5466 5466 5465 5464 5464 5464 5464 5464 5464 5463 5462 5461 5459 5458 5456 5455 5453 5452 5450 5449 5447 5446 5445 5444 5443 5443 5442 5442 5442 5443 5444 5446 5449 5451 5453 5455 5457 5459 5460 5462 5464 5466 5468 5471 5474 5477 5482 5486 5489 5493 5496 5500 5503 5506 5509 5512 5516 5519 5522 5524 5527 5529 5531 5534 5536
5489 5484 5479 5475 5471 5467 5466 5465 5464 5464 5463 5462 5462 5462 5462 5462 5462 5461 5460 5459 5458 5457 5455 5453 5452 5450 5449 5448 5446 5445 5444 5442 5441 5441 5440 5440 5439 5440 5440 5442 5444 5446 5449 5451 5453 5455 5457 5458 5460 5462 5464 5467 5469 5473 5477 5481 5485 5488 5491 5494 5497 5501 5504 5507 5510 5513 5516 5519 5521 5524 5526 5529 5531 5533
Wind_Speed
20 20 20 20 20 20 21 21 22 22 22 22 22 22 22 23 23 24 24 26 27 28 30 31 32 32 32 32 34 35 36 36 36 37 38 39 40 40 39 39 39 39 40 41 41 41 41 40 39 39 41 42 43 43 44 44 43 43 43 43 42 41 40 40 38 37 39 40 40 40 40 40 39 39
20 20 20 20 20 20 20 21 21 21 22 22 22 22 22 22 22 22 23 24 26 26 27 28 29 30 30 30 31 32 33 33 33 34 35 35 36 36 36 37 37 37 38 38 39 39 40 40 39 39 39 40 42 42 42 43 44 43 40 39 38 37 37 37 35 35 37 39 39 40 40 39 38 38
20 21 21 21 21 21 21 21 22 22 22 23 23 23 23 22 22 22 22 24 26 27 27 28 29 29 29 30 31 32 32 31 31 32 33 32 33 33 34 35 34 35 36 37 37 37 38 39 38 38 38 40 42 43 43 44 45 45 43 40 37 35 35 35 35 37 38 37 36 37 38 38 38 38
22 22 22 22 23 23 24 24 24 24 24 25 25 25 25 25 24 24 24 24 26 28 28 29 30 30 30 30 32 33 33 33 32 33 34 33 32 33 34 34 34 35 36 37 37 37 37 38 38 37 37 39 41 43 43 44 44 45 46 46 44 42 40 39 38 38 37 34 34 37 39 39 38 38
23 24 24 24 25 25 26 26 26 27 27 27 27 27 27 27 27 27 27 27 27 29 30 30 31 32 31 32 33 34 35 35 35 35 35 35 34 35 35 35 35 36 36 37 38 38 38 38 38 39 38 39 40 41 42 43 44 44 45 47 47 46 46 45 43 41 40 38 40 43 44 42 41 40
25 25 25 26 26 27 27 28 28 28 29 29 30 29 30 30 29 29 30 29 29 31 32 33 33 33 33 34 35 35 36 36 36 37 38 37 37 37 37 37 37 37 37 38 39 39 39 39 39 40 40 40 40 41 41 42 43 43 44 45 46 47 48 49 47 46 46 47 47 48 47 46 44 43
27 28 28 28 28 28 28 29 29 30 30 31 32 32 32 32 32 32 32 32 32 32 34 35 35 35 35 35 36 37 37 37 38 38 39 39 39 39 39 39 40 39 38 39 40 41 41 41 41 41 41 41 41 41 41 42 43 43 44 44 45 46 47 49 49 49 49 49 48 48 48 48 47 45
29 29 30 30 31 31 31 32 32 32 32 33 33 34 34 34 34 34 34 35 35 35 35 36 37 37 37 37 38 38 38 39 39 40 40 41 42 41 41 41 41 41 40 40 41 42 42 42 43 43 43 43 43 42 42 42 42 43 44 44 45 45 46 47 48 49 50 48 46 46 47 48 48 46
29 30 31 31 32 33 33 34 34 35 35 35 35 36 36 36 36 36 36 36 36 37 37 38 38 39 39 39 39 39 40 39 40 40 41 42 43 43 43 43 43 43 43 42 42 43 43 44 44 44 45 45 45 45 44 43 43 43 43 44 45 45 46 47 47 47 49 48 46 46 46 47 48 47
31 31 32 33 34 35 35 36 36 36 36 36 36 37 37 38 38 37 37 37 37 37 37 38 39 39 39 39 38 38 39 39 38 39 39 39 40 41 41 42 43 43 44 44 45 45 45 45 45 45 46 47 47 47 47 46 45 44 44 44 45 45 46 46 46 46 47 47 47 47 45 45 45 45
33 33 34 35 35 36 37 37 37 37 37 37 37 38 38 39 39 39 38 38 37 37 37 37 38 37 37 37 35 35 36 36 35 35 36 36 36 37 38 38 39 40 41 43 44 46 47 48 47 47 47 48 47 48 48 48 48 47 46 46 46 46 46 46 46 46 45 46 47 47 46 45 45 45
36 36 37 37 38 38 38 39 39 39 39 39 39 39 39 39 40 40 40 40 39 38 37 36 36 36 34 34 33 33 34 34 34 33 34 34 34 35 36 36 37 38 39 40 42 44 46 48 48 49 49 49 49 49 49 50 50 49 49 48 48 48 48 48 47 46 45 45 46 47 47 46 45 44
38 38 39 39 40 41 41 41 40 40 40 40 40 40 40 40 40 41 42 42 42 41 39 38 37 36 35 34 33 34 34 35 35 35 36 36 35 36 36 37 38 40 40 41 42 43 45 46 47 49 50 50 51 52 51 51 51 51 51 51 50 49 49 49 49 49 47 46 46 47 46 44 45 44
39 39 39 39 40 42 43 43 42 41 41 41 41 41 41 42 42 43 43 43 44 43 42 41 40 39 38 37 37 36 37 38 39 39 39 39 39 39 39 40 41 42 43 44 44 45 45 46 47 49 50 51 52 53 53 52 52 52 53 53 52 51 50 50 50 50 49 48 47 47 46 45 45 45
40 40 41 41 41 42 43 43 43 42 42 42 43 43 43 43 44 44 45 45 45 45 45 44 44 43 42 42 41 40 40 41 43 44 44 43 43 43 43 44 45 45 46 47 48 48 48 49 50 51 51 52 52 53 54 54 54 54 54 54 53 53 52 51 51 50 50 50 48 47 47 46 46 46
46 45 46 46 46 45 45 45 46 46 46 46 46 46 46 46 46 46 46 47 47 47 47 47 47 47 47 47 46 46 45 45 45 47 48 48 48 47 47 47 47 48 49 50 51 51 51 53 53 53 53 53 54 54 54 55 56 56 56 55 55 54 54 53 52 52 51 51 50 48 47 47 47 46
50 50 50 50 49 49 49 49 50 50 50 50 50 49 47 47 48 48 48 49 50 50 49 49 49 51 52 52 51 51 51 50 50 50 51 51 52 52 52 51 51 50 51 53 53 53 53 55 56 56 55 55 56 57 56 56 57 57 57 57 56 56 55 55 54 53 52 51 51 50 48 48 47 46
52 51 51 51 51 52 52 53 54 55 55 55 54 53 50 48 49 50 50 51 52 53 53 52 52 53 54 55 55 56 56 55 55 55 55 55 55 55 56 56 55 54 53 55 56 56 54 55 57 58 58 57 57 59 58 58 58 59 58 58 57 57 56 56 55 54 53 52 51 50 50 49 47 45
52 52 51 51 52 53 53 54 55 56 57 56 56 56 55 53 52 53 53 54 55 55 56 55 54 54 55 57 57 58 58 59 59 59 58 58 58 59 59 58 58 57 56 57 58 58 57 57 58 59 60 59 58 60 61 59 58 59 60 59 58 58 57 57 56 55 54 53 52 51 50 50 49 46
53 52 52 52 53 54 55 55 56 56 57 57 57 57 58 58 58 57 57 57 57 58 58 58 58 58 58 59 59 60 60 61 62 62 61 61 61 61 61 60 59 59 59 59 60 61 61 61 60 60 61 62 61 62 63 60 58 60 62 61 60 59 58 58 57 56 55 53 52 51 50 51 51 49
52 51 51 51 52 53 55 56 56 57 57 58 58 59 59 60 60 59 59 59 59 59 59 59 60 60 60 61 61 62 63 63 64 65 64 63 64 64 64 63 62 62 61 62 64 65 65 65 63 62 63 64 64 65 65 63 59 61 63 63 62 61 60 58 57 56 55 54 52 51 50 49 50 51
51 51 51 51 52 53 54 55 56 56 57 57 57 58 59 59 59 60 61 61 61 61 61 60 60 61 62 63 63 64 65 65 66 67 66 66 67 67 66 66 65 65 64 65 67 68 68 68 67 66 67 68 68 69 69 66 63 63 65 65 63 62 61 60 58 56 55 54 53 52 51 49 49 50
52 53 53 52 51 50 51 52 53 54 54 55 55 56 56 57 57 59 60 61 62 62 62 62 62 62 63 64 65 66 66 66 68 68 68 68 68 68 68 68 68 68 68 69 70 70 70 71 71 70 72 73 73 74 74 71 68 67 67 66 65 64 62 61 59 57 55 55 54 52 51 49 49 50
54 54 53 51 49 48 48 50 52 53 53 54 55 55 55 56 57 58 59 60 61 62 62 63 63 64 65 66 66 67 68 68 68 68 68 70 70 70 70 71 71 71 71 72 74 73 72 74 75 75 77 78 78 79 78 74 71 70 69 68 66 65 63 61 59 57 55 55 54 53 52 50 51 51
54 54 52 51 50 49 50 52 53 53 54 55 55 56 57 58 59 60 60 61 62 63 64 64 65 66 67 68 68 69 69 69 68 68 70 71 73 73 74 74 75 74 73 75 77 76 76 77 79 79 80 79 79 80 78 74 71 69 68 67 67 66 65 62 60 57 55 54 54 54 54 54 52 50
55 54 53 53 53 54 56 56 55 54 54 56 57 58 59 61 62 63 63 64 64 65 67 67 68 69 70 71 71 72 72 71 71 72 72 73 75 76 77 78 78 77 77 79 81 81 80 79 78 76 74 73 72 73 72 69 65 64 65 65 65 65 65 63 60 57 55 54 54 54 55 56 55 53
57 57 58 59 60 61 60 58 56 55 56 58 59 61 62 62 63 64 65 65 66 67 68 69 70 71 72 73 73 74 74 74 75 75 76 77 79 79 79 79 80 81 82 84 84 82 78 75 71 69 67 66 66 65 65 63 59 58 60 61 61 63 63 62 60 57 55 55 54 53 53 54 54 54
58 59 60 61 61 60 59 57 56 56 58 59 60 61 62 62 62 62 63 63 65 66 66 67 68 70 71 72 74 75 76 77 77 78 78 79 80 80 81 82 83 84 83 82 79 74 70 67 65 65 64 64 64 63 61 60 56 54 56 57 57 59 60 60 58 56 55 54 53 51 50 49 49 51
56 56 57 57 57 57 56 57 57 58 59 60 60 60 61 60 60 59 59 59 60 62 63 64 65 66 68 70 72 74 76 77 78 78 79 80 81 82 82 81 80 77 74 72 69 66 63 60 59 59 60 62 64 63 62 60 56 52 52 53 54 54 56 57 57 55 54 53 52 51 50 49 48 49
52 53 53 54 54 55 56 57 58 59 59 60 60 60 60 60 59 60 59 59 60 60 61 62 64 65 67 68 70 72 74 76 77 78 79 79 78 77 75 72 70 67 65 64 63 62 60 57 55 55 56 58 61 63 62 61 57 51 49 51 51 51 52 54 55 54 53 52 52 51 50 49 47 47
49 51 52 53 54 55 56 57 58 59 60 60 60 60 60 61 61 61 61 61 62 62 63 64 65 65 66 68 69 71 72 72 73 73 71 69 66 64 64 62 62 61 60 59 58 58 57 56 54 54 53 54 57 60 61 61 58 51 48 50 50 49 49 51 53 53 53 52 51 50 49 47 45 44
47 48 50 52 53 54 55 56 58 59 59 59 59 59 61 62 62 63 64 64 64 64 64 63 62 61 61 62 63 63 63 62 61 60 59 57 55 55 55 55 54 53 52 51 50 50 51 52 52 53 53 52 53 57 59 60 58 52 48 50 51 50 48 49 51 52 52 51 50 49 49 48 48 48
44 45 47 49 51 53 54 55 56 57 58 59 60 61 63 64 64 64 63 61 59 57 55 54 53 52 53 53 53 53 52 51 50 49 49 48 49 49 50 50 49 48 46 45 44 44 45 46 48 50 51 51 51 53 55 57 57 52 49 51 52 51 49 48 49 50 50 50 49 49 48 48 49 51
42 44 46 48 50 52 54 55 56 58 59 60 61 61 61 61 59 57 54 52 50 48 47 46 46 46 46 46 46 44 43 43 43 44 44 46 47 48 48 48 47 46 45 44 43 42 42 42 43 46 49 50 49 49 51 54 55 52 50 51 52 51 49 47 47 48 49 49 48 48 48 48 48 49
43 45 47 49 51 52 53 54 54 55 55 55 55 54 54 53 51 50 49 48 46 44 42 41 41 41 42 41 40 39 39 40 41 42 43 44 44 44 44 44 45 45 44 43 42 42 41 39 39 41 45 48 48 47 48 50 51 50 50 51 51 50 49 46 45 46 47 47 47 47 46 46 46 47
44 46 48 49 50 51 51 51 51 51 51 51 51 51 51 51 50 49 47 45 42 39 38 37 38 38 39 38 38 38 38 39 40 40 40 39 39 40 40 40 41 42 43 42 41 40 39 38 37 38 40 44 46 45 45 45 45 46 47 49 49 49 47 45 44 44 45 45 45 45 45 44 44 44
45 47 48 49 50 50 50 50 50 50 50 50 50 49 48 46 45 43 40 38 37 37 37 37 37 37 37 37 37 37 38 38 38 37 37 37 37 38 38 38 38 39 40 40 40 39 37 36 35 35 36 39 42 43 43 41 40 41 43 46 47 46 45 44 43 42 42 43 43 43 43 43 43 42
44 45 45 47 48 48 48 48 47 46 45 43 42 40 38 36 34 34 34 34 34 34 34 34 34 34 34 35 35 35 35 35 35 35 35 36 37 37 37 36 37 37 39 39 38 37 36 34 33 33 32 34 37 41 42 40 38 38 40 42 43 43 43 42 41 40 40 41 41 41 41 41 40 39
40 41 42 43 44 44 43 41 40 38 35 32 30 28 27 27 27 28 29 29 29 28 28 28 28 28 29 30 31 31 32 33 33 34 34 34 35 35 35 34 33 34 35 35 34 34 34 33 32 31 30 30 33 38 40 39 38 38 38 39 40 41 41 40 39 39 39 39 38 38 38 38 37 36
38 39 40 40 39 37 36 35 33 29 26 23 22 22 23 24 24 23 22 22 22 22 22 22 23 24 25 27 29 30 30 31 32 33 33 33 34 35 34 33 31 30 31 32 32 33 33 33 32 31 30 29 30 34 38 40 39 38 38 38 39 39 39 39 38 37 37 36 36 36 35 35 34 34
38 38 38 36 34 33 31 28 25 22 19 19 19 20 21 20 19 17 17 17 18 19 20 21 23 25 27 28 29 29 29 30 31 32 33 34 35 35 34 32 30 28 27 29 31 32 32 32 31 31 30 28 28 32 38 40 38 36 36 37 38 37 37 37 37 36 35 34 34 34 32 32 32 32
37 37 35 33 32 30 25 21 19 17 17 18 18 19 18 16 15 15 16 17 18 20 21 23 25 26 27 27 28 28 29 30 32 33 34 34 34 33 32 30 28 26 25 26 28 31 32 33 32 30 29 27 27 31 36 38 37 35 35 35 34 34 34 34 34 33 32 32 32 31 30 30 30 29
37 35 33 31 29 25 19 16 15 15 16 17 18 16 14 14 14 15 16 18 19 21 21 22 23 24 25 27 28 28 29 28 28 28 28 27 27 27 26 25 25 25 23 22 23 24 26 29 30 29 27 26 27 30 35 37 36 35 34 32 31 31 31 31 30 29 29 29 29 28 28 27 26 24
36 35 32 30 27 22 15 12 13 14 16 17 16 13 12 11 12 14 16 17 18 18 18 19 22 24 25 26 24 22 21 20 19 19 19 19 19 20 21 21 22 22 21 20 20 21 22 24 26 26 25 24 25 28 33 36 35 33 31 30 30 29 29 28 28 27 27 27 26 26 25 24 22 22
37 35 32 30 26 20 14 11 12 14 15 15 13 11 10 9 11 13 14 14 14 15 17 19 19 19 17 16 14 13 13 14 15 15 14 14 14 14 15 16 17 19 19 20 21 22 22 22 22 22 21 21 23 27 31 33 32 31 30 29 28 28 27 27 27 27 27 26 26 25 24 23 23 23
Wind_Direction
256 256 256 256 254 253 253 253 252 252 253 253 253 253 254 255 257 258 260 262 263 264 265 266 266 265 265 264 264 263 262 261 262 262 263 264 264 265 266 266 266 265 265 265 266 267 266 265 265 263 260 259 259 260 262 263 264 265 266 266 265 265 266 267 268 268 266 266 267 268 269 271 273 273
255 256 257 258 258 257 257 258 258 258 258 258 257 257 256 256 258 260 261 263 263 262 264 266 266 266 266 266 265 264 263 263 264 264 264 265 266 268 268 268 268 268 268 268 268 268 268 268 266 265 263 261 260 260 261 262 263 264 265 266 266 264 264 266 269 270 268 265 265 267 268 270 270 271
257 258 259 259 259 260 260 260 260 261 262 262 263 262 262 260 260 261 262 264 266 266 266 266 267 267 268 268 268 267 267 266 267 267 267 267 268 269 269 269 269 270 270 271 270 270 270 271 269 268 266 265 264 263 263 263 264 264 265 267 268 269 270 271 273 273 269 266 267 268 270 270 270 270
260 261 262 263 263 263 263 262 262 262 262 263 263 264 264 264 264 263 262 263 265 267 268 268 268 269 269 269 270 270 270 269 269 269 269 269 269 270 270 271 270 270 270 271 272 271 271 272 272 271 269 267 266 266 266 266 265 265 266 268 270 272 273 273 274 272 268 268 273 275 275 275 273 273
260 260 262 263 264 264 265 265 265 265 265 264 264 264 264 264 265 265 264 264 264 266 267 267 268 269 269 269 269 270 270 270 270 270 269 269 270 270 271 271 270 270 271 271 272 272 272 272 272 272 271 269 268 268 268 268 267 266 267 268 269 270 271 271 271 270 268 270 275 279 279 278 276 275
257 258 259 260 262 263 264 264 265 265 266 266 266 265 265 264 264 264 264 264 265 266 267 267 267 268 269 269 269 269 270 270 271 271 270 269 269 270 270 270 270 270 271 272 272 272 272 272 271 272 271 271 270 270 270 270 270 269 269 269 270 270 271 271 270 269 268 270 273 277 278 277 276 275
255 256 257 257 258 259 260 262 263 263 264 265 265 265 265 265 264 263 263 262 262 263 265 266 267 268 268 269 269 270 270 271 271 271 271 271 270 270 270 270 269 269 269 271 272 272 273 273 272 271 271 271 270 270 270 271 271 272 272 271 271 271 271 272 272 271 270 270 271 274 275 275 275 274
255 256 257 257 257 257 258 259 260 261 262 263 264 264 265 265 265 264 263 262 261 260 261 262 264 265 266 266 267 268 269 269 270 270 271 271 271 271 271 271 270 269 268 268 269 270 271 272 272 272 272 272 271 270 270 270 271 271 272 273 272 272 272 272 273 273 273 273 273 273 273 273 274 273
257 258 259 259 260 261 262 262 263 263 263 264 264 264 264 265 264 264 264 264 263 262 260 260 260 261 262 262 263 264 264 265 266 267 268 269 270 270 270 271 271 271 270 269 268 268 268 268 270 271 272 272 272 272 271 270 270 270 271 272 273 273 273 273 273 273 274 275 275 273 272 272 273 273
261 260 261 262 263 265 267 268 268 268 268 268 267 266 266 265 264 263 262 262 263 262 262 260 260 259 259 259 259 260 261 261 262 263 264 266 267 268 268 268 269 270 270 270 270 269 268 268 268 268 269 270 271 272 272 271 270 270 269 270 271 272 272 272 272 272 273 274 274 274 272 270 271 273
266 265 264 264 265 267 268 269 269 270 270 271 271 270 269 268 266 264 262 260 259 259 259 259 258 257 256 256 255 255 257 258 259 261 262 263 265 267 267 268 269 269 270 270 269 269 269 269 268 268 268 268 269 269 270 271 270 270 269 269 270 271 271 271 272 272 273 273 273 273 272 271 271 273
267 268 268 268 268 268 269 269 269 270 270 271 271 270 270 270 269 267 264 261 259 257 255 254 253 252 251 251 251 252 254 255 256 258 261 262 265 267 269 271 272 272 272 272 271 271 270 270 269 269 269 269 268 267 268 269 269 269 269 269 268 269 270 271 272 272 272 272 272 273 273 273 272 272
268 268 270 270 270 269 268 268 269 269 270 271 271 270 270 269 269 268 267 265 261 258 255 251 247 245 246 248 250 252 253 254 255 256 259 262 265 268 270 273 275 276 276 276 275 275 275 274 273 271 270 269 268 268 267 267 267 268 268 268 267 268 268 269 270 271 271 271 272 272 273 273 271 272
268 270 272 273 272 269 268 267 267 267 269 270 270 270 270 269 269 269 268 266 264 261 257 252 246 243 244 247 251 253 254 256 257 257 259 261 264 268 271 273 276 278 279 279 279 279 279 279 277 275 273 271 270 269 268 267 267 266 266 267 267 267 267 267 268 269 270 270 270 271 272 271 269 270
271 273 275 276 275 272 269 267 267 268 270 271 271 271 271 270 270 270 269 267 266 264 260 256 251 248 247 249 251 253 255 257 259 261 261 262 264 267 270 273 276 278 279 280 281 282 282 281 279 278 276 274 272 271 270 269 267 267 266 266 266 266 266 265 265 266 268 269 269 269 270 270 269 270
273 274 275 275 274 273 271 269 268 269 271 273 273 273 273 273 272 272 270 268 268 267 264 261 257 254 252 252 253 255 256 258 260 263 265 266 267 267 269 271 275 278 279 279 280 282 283 282 280 279 277 276 274 272 271 269 268 267 266 266 266 265 265 264 264 264 265 266 267 267 267 267 268 269
274 274 273 273 272 271 270 269 269 270 272 274 274 273 273 274 274 273 272 270 269 268 267 265 263 259 257 256 255 256 257 258 260 262 265 268 269 270 270 271 273 276 279 280 279 280 281 282 281 279 277 275 274 273 271 270 269 268 267 266 265 265 264 263 262 262 263 263 264 265 265 265 265 266
275 274 272 272 271 270 269 269 268 269 271 273 273 271 271 273 274 274 274 273 271 270 268 267 265 263 261 259 257 256 256 258 259 260 262 265 268 270 272 273 274 275 277 279 279 279 280 281 280 278 277 274 273 272 271 270 269 268 267 266 265 265 264 263 262 261 260 261 261 262 263 263 263 262
274 273 272 270 270 269 269 268 268 269 270 271 270 269 268 270 272 274 274 274 272 271 269 268 267 266 264 262 260 259 258 258 259 260 261 263 265 268 270 272 274 275 276 277 278 278 279 279 279 278 276 274 272 271 269 269 269 269 267 266 265 264 263 263 262 260 259 258 258 259 260 261 261 259
273 273 272 270 269 269 269 269 268 269 269 269 269 268 268 269 271 273 273 272 271 270 269 269 268 268 267 265 263 262 261 261 261 261 261 263 264 266 268 270 272 273 274 275 276 277 278 278 277 276 275 273 272 270 268 268 268 269 267 265 265 264 263 262 261 259 258 257 255 256 256 258 259 257
273 272 271 270 269 269 268 269 269 268 268 268 269 268 268 269 270 271 270 270 269 270 270 269 268 267 267 266 264 263 262 262 262 263 263 265 266 267 268 269 270 271 273 274 275 276 276 277 275 274 273 272 271 270 269 267 268 269 268 266 264 263 262 261 260 259 257 255 253 252 252 254 256 256
271 270 269 270 270 269 269 269 269 268 268 268 268 268 269 269 269 269 269 268 268 269 269 269 268 267 266 264 264 263 262 262 263 264 265 266 268 268 269 270 271 271 272 273 274 274 275 275 274 273 272 272 272 272 270 269 268 269 269 267 264 263 261 260 259 258 256 254 251 249 249 249 250 253
270 270 270 269 269 269 269 270 270 270 270 269 269 269 269 269 269 269 269 268 268 268 268 267 267 266 264 264 263 263 263 264 265 266 267 267 268 269 270 271 272 272 272 273 272 272 272 273 273 272 272 273 273 273 272 270 269 269 269 267 265 262 260 258 257 256 254 252 249 247 246 246 246 247
271 271 270 268 267 266 269 272 274 275 275 274 274 273 272 271 271 270 270 269 268 268 267 266 265 265 264 263 263 263 263 264 266 268 269 270 270 271 271 271 272 272 272 272 271 271 271 272 273 273 273 273 273 273 272 271 270 269 268 266 264 261 258 257 255 254 252 250 248 245 243 243 245 246
272 271 269 268 267 268 272 276 277 276 276 276 277 277 276 275 274 272 271 270 269 268 266 265 264 263 263 263 263 262 262 263 265 267 268 270 272 273 273 272 272 272 271 271 271 272 272 273 274 273 273 272 272 271 271 269 268 267 265 264 262 260 257 255 253 252 250 248 246 244 242 241 243 244
272 271 269 268 269 272 276 277 276 275 276 277 277 277 276 276 274 273 271 269 268 266 265 264 263 262 262 262 262 262 263 265 266 266 267 268 270 272 272 272 272 273 272 272 273 274 274 274 273 272 270 269 268 268 268 267 265 263 261 260 258 257 255 253 252 251 249 247 245 243 242 241 242 243
271 270 269 269 271 274 276 275 274 275 276 276 276 276 275 275 274 272 271 269 268 266 265 264 264 263 263 263 264 264 265 265 265 266 267 269 270 271 271 272 273 274 274 275 275 276 275 273 271 268 265 264 264 264 264 264 261 259 258 256 255 253 252 251 250 249 248 246 244 243 243 244 244 245
271 270 270 270 271 272 272 273 273 274 274 274 275 275 275 274 274 273 271 270 269 268 268 267 267 266 265 265 265 265 265 266 266 266 267 269 270 271 271 272 274 275 276 276 276 275 273 271 268 265 261 258 258 259 260 260 258 255 255 255 253 251 250 249 248 247 246 245 244 242 242 242 244 246
271 270 270 270 269 269 270 271 272 272 273 274 275 275 275 274 274 273 272 271 270 269 269 268 268 268 268 267 267 267 267 267 267 268 268 269 270 272 273 274 274 274 274 273 273 271 270 268 265 262 258 255 254 255 255 256 256 253 252 253 252 250 249 248 247 246 245 244 243 241 240 238 239 242
271 270 270 269 269 269 270 271 271 272 273 274 274 274 273 273 273 273 273 272 272 271 270 269 269 269 270 270 269 269 269 269 269 270 270 271 272 272 272 272 272 271 271 270 269 269 267 265 262 259 257 254 252 251 251 252 253 251 250 251 251 249 248 247 246 245 244 244 243 242 241 239 240 244
272 271 271 271 271 271 272 272 272 273 273 273 272 272 272 272 272 271 272 272 272 272 271 271 272 272 272 271 271 270 270 270 270 270 270 270 270 270 269 269 269 269 269 268 268 267 265 263 259 257 255 253 250 249 248 249 250 249 248 249 251 250 247 246 245 244 244 244 243 243 242 240 237 240
274 273 273 273 273 273 273 273 273 273 272 272 272 271 271 272 272 272 273 274 274 274 273 273 273 272 272 271 270 270 269 269 269 269 269 269 268 267 267 268 267 267 267 267 267 267 265 261 257 254 253 252 250 248 246 246 248 247 245 246 249 250 248 246 245 243 243 243 243 243 243 241 237 237
278 277 277 276 276 275 275 275 275 275 275 274 274 274 275 275 275 275 276 276 275 275 274 273 272 271 270 270 269 269 269 268 268 268 268 268 268 268 268 267 266 265 264 265 266 267 265 261 256 252 250 249 249 247 245 245 245 245 243 244 247 249 249 247 245 243 242 241 242 243 243 243 241 240
283 283 283 282 281 281 281 281 280 280 279 279 279 279 278 278 278 277 278 278 277 277 275 274 273 272 271 271 270 269 268 268 268 269 270 271 270 269 267 266 264 263 262 263 265 266 265 262 257 252 248 247 247 247 245 243 243 243 242 242 244 246 247 247 245 243 241 240 241 242 243 244 244 244
291 290 289 288 287 287 286 286 285 284 283 283 282 282 281 281 281 281 282 282 280 278 276 275 274 273 272 271 269 269 269 270 271 272 272 272 270 268 266 264 263 262 262 263 264 264 263 261 258 253 249 246 245 245 245 244 242 241 240 241 243 244 245 246 245 243 241 240 240 241 243 244 245 245
296 294 293 292 291 291 291 290 290 289 288 286 285 284 283 283 283 282 282 280 279 277 276 275 274 272 271 269 269 269 270 271 271 272 272 272 271 270 268 264 262 262 262 263 263 262 260 257 256 254 251 247 244 243 244 244 242 240 240 240 241 241 242 243 244 243 241 240 240 242 243 244 244 245
295 294 294 294 294 294 294 293 291 289 287 285 284 282 281 280 279 278 278 277 276 276 276 274 272 269 268 267 267 267 269 270 271 272 272 273 272 272 270 267 264 262 261 262 262 259 255 253 253 254 252 248 243 240 240 241 240 238 237 238 238 239 239 240 241 241 240 239 239 241 242 243 244 245
295 295 296 296 296 295 293 291 289 287 285 284 282 281 279 277 276 275 275 275 276 275 275 273 271 268 267 266 266 266 267 268 269 270 272 272 273 272 271 268 265 262 260 260 258 255 250 249 250 252 252 250 244 238 235 235 236 235 235 235 236 236 236 237 239 239 239 239 239 240 242 243 244 245
300 301 300 299 297 295 293 291 289 286 285 283 280 278 276 275 274 274 275 276 276 275 274 273 272 270 269 269 268 268 268 268 269 269 270 270 271 271 271 269 266 262 259 256 254 250 247 246 248 250 251 250 243 235 230 229 230 231 231 232 232 233 234 235 236 237 237 237 238 239 241 243 244 244
308 307 305 303 300 298 296 292 287 284 281 278 277 277 276 277 277 277 277 276 275 276 276 276 275 276 276 275 275 273 271 270 268 268 267 268 269 270 270 269 266 262 257 252 248 246 245 245 246 247 248 247 242 233 226 223 225 226 227 227 227 228 230 231 232 233 234 234 235 237 239 241 241 242
315 314 311 309 306 304 299 290 282 278 276 277 280 282 282 280 279 278 277 275 276 277 279 280 281 281 281 279 278 276 273 271 269 269 269 269 270 269 268 265 262 259 255 248 244 243 244 245 244 243 243 244 240 231 223 220 221 223 224 224 224 225 227 229 229 230 230 231 232 234 235 237 239 241
323 321 317 315 313 308 300 287 277 275 277 282 288 288 283 277 273 274 275 276 277 279 281 281 281 280 279 279 278 277 276 274 272 271 270 269 268 266 263 259 255 252 250 245 241 240 241 242 241 240 240 240 237 228 220 217 217 219 221 223 224 225 227 228 227 227 227 229 232 233 234 236 238 240
329 325 322 321 319 313 301 286 279 279 282 289 293 288 275 269 271 274 276 277 279 280 281 280 280 280 281 283 283 282 279 276 273 271 269 266 263 259 256 252 247 243 242 240 236 236 238 239 237 236 235 236 232 223 216 213 213 216 219 222 223 225 226 225 224 224 225 228 230 232 234 236 239 239
334 331 330 329 326 319 304 289 285 284 287 294 294 280 264 266 275 278 279 282 284 285 285 285 285 285 286 287 287 285 281 277 273 270 266 262 257 253 249 244 238 235 234 229 225 229 236 237 232 229 229 229 224 215 210 210 212 215 218 221 223 223 220 218 217 219 222 224 226 229 231 234 235 234
339 337 337 337 333 324 311 298 289 285 290 296 288 263 253 265 277 282 289 296 301 301 299 294 291 290 290 291 291 289 285 279 274 269 264 259 252 243 237 232 226 222 219 217 218 226 233 232 225 221 219 216 209 205 205 208 211 214 218 219 218 215 212 211 212 214 216 219 221 223 224 227 229 230